Location: Geremba
(10.4250°N, 67.2394°W)
Time: 14:01:21
(UTC+00:00)

Cosmos 2218 Rocket - Pass Details

Date: 16 August 2024
Orbit: 956 x 1005 km, 82.9° (Epoch: 06 September)

Event Time Altitude Azimuth Distance (km) Brightness Sun altitude
Rises 23:10:01 0° 203° (SSW) 3,641 7.1 -6.4°
Reaches altitude 10° 23:12:45 10° 213° (SSW) 2,701 6.6 -7.1°
Maximum altitude 23:18:13 33° 275° (W) 1,564 6.0 -8.4°
Drops below altitude 10° 23:23:46 10° 338° (NNW) 2,729 6.9 -9.7°
Sets 23:26:33 0° 348° (NNW) 3,685 7.4 -10.3°
